Location: Newark
(36.0797°N, 3.9744°E)
Time: 01:50:52
(UTC+00:00)

Vanguard 2 - Pass Details

Date: 13 December 2019
Orbit: 553 x 2938 km, 32.9° (Epoch: 23 January)

Event Time Altitude Azimuth Distance (km) Brightness Sun altitude
Exits shadow 02:42:05 79° 150° (SSE) 2,974 10.1 -48.4°
Drops below altitude 10° 02:58:39 10° 95° (E) 5,420 12.4 -45.0°
Sets 03:02:26 0° 94° (E) 6,232 12.9 -44.3°
